EDT,Max TemperatureF,Mean TemperatureF,Min TemperatureF,Max Dew PointF,MeanDew PointF,Min DewpointF,Max Humidity, Mean Humidity, Min Humidity, Max Sea Level PressureIn, Mean Sea Level PressureIn, Min Sea Level PressureIn, Max VisibilityMiles, Mean VisibilityMiles, Min VisibilityMiles, Max Wind SpeedMPH, Mean Wind SpeedMPH, Max Gust SpeedMPH,PrecipitationIn, CloudCover, Events, WindDirDegrees
2012-3-1,58,46,34,46,32,27,77,62,46,29.96,29.80,29.61,10,10,10,21,8,30,0.00,4,,268
2012-3-2,61,46,30,52,39,27,89,65,40,29.95,29.70,29.51,10,10,5,21,7,32,0.30,4,Rain-Thunderstorm,164
2012-3-3,58,47,35,51,28,20,80,56,31,29.83,29.69,29.52,10,10,10,18,10,29,0.00,3,,260
2012-3-4,36,33,30,23,20,17,69,58,47,29.93,29.82,29.77,10,9,6,14,6,21,T,8,Snow,254
2012-3-5,35,31,27,27,21,13,85,65,45,30.51,30.18,29.91,10,7,0,14,4,22,0.01,7,Fog-Snow,297
2012-3-6,57,39,21,20,15,10,77,48,18,30.60,30.48,30.37,10,10,10,12,4,16,0.00,1,,189
2012-3-7,68,54,39,36,24,14,39,29,19,30.47,30.35,30.22,10,10,10,16,7,25,0.00,0,,201
2012-3-8,68,55,42,52,44,32,93,68,42,30.25,30.10,29.98,10,8,1,17,9,32,0.55,6,Rain,241
2012-3-9,48,40,31,31,22,16,75,54,33,30.46,30.29,30.19,10,10,10,18,7,29,0.00,2,,284
2012-3-10,48,36,24,21,13,9,68,46,23,30.62,30.52,30.45,10,10,10,9,2,13,0.00,0,,309
2012-3-11,67,48,29,28,23,17,75,47,18,30.48,30.40,30.31,10,10,10,13,2,17,0.00,0,,211
2012-3-12,66,54,41,55,43,27,93,60,26,30.31,30.22,30.10,10,8,2,12,3,17,0.23,5,Rain,188
2012-3-13,74,65,55,55,52,45,86,61,35,30.13,30.08,30.03,10,10,10,13,6,23,0.00,6,,222
2012-3-14,77,61,45,48,44,39,93,60,27,30.25,30.18,30.13,10,10,7,10,2,16,0.00,0,,189
2012-3-15,73,61,49,49,45,42,80,59,38,30.23,30.18,30.14,10,10,10,9,4,17,0.00,1,,200
2012-3-16,73,65,57,54,52,48,78,64,49,30.20,30.17,30.13,10,10,9,9,3,15,0.02,5,Rain,222
2012-3-17,79,64,48,53,48,41,93,60,27,30.27,30.21,30.14,10,9,2,13,2,20,0.00,2,,133
2012-3-18,74,67,60,54,51,48,69,57,44,30.27,30.19,30.13,10,10,10,13,4,20,T,5,,199
2012-3-19,80,68,56,57,54,51,100,70,40,30.19,30.15,30.09,10,9,2,10,2,14,0.50,4,Rain,186
2012-3-20,82,68,54,56,54,52,86,63,39,30.23,30.17,30.12,10,10,10,13,4,18,0.00,2,,84
2012-3-21,80,69,57,56,54,51,80,60,40,30.25,30.20,30.13,10,10,10,13,4,16,0.00,0,,95
2012-3-22,85,71,56,56,52,49,93,62,31,30.21,30.14,30.07,10,10,7,10,2,16,0.00,0,,82
2012-3-23,85,69,53,60,52,46,83,55,27,30.10,30.00,29.88,10,10,8,23,1,30,0.06,3,Rain-Thunderstorm,115
2012-3-24,66,63,60,60,55,50,97,79,60,29.92,29.87,29.82,10,10,8,10,5,16,0.17,6,Rain,169
2012-3-25,64,58,51,54,51,48,100,84,67,29.95,29.86,29.79,10,9,2,15,4,21,0.00,6,Fog,359
2012-3-26,54,44,33,48,31,16,83,56,29,30.32,30.12,29.95,10,10,8,18,9,28,0.00,2,,340
2012-3-27,59,43,27,26,18,12,75,46,17,30.39,30.28,30.08,10,10,10,8,1,10,0.00,0,,23
2012-3-28,76,62,47,55,37,17,73,49,25,30.04,29.86,29.71,10,10,10,17,9,32,0.03,2,,247
2012-3-29,58,48,38,40,35,31,70,55,40,30.09,29.99,29.86,10,10,10,14,7,17,0.00,3,,338
2012-3-30,69,52,35,53,41,29,82,65,48,30.09,29.91,29.69,10,9,2,28,4,38,0.47,5,Rain,202
2012-3-31,57,51,44,54,46,37,93,77,61,29.94,29.84,29.75,10,9,4,15,4,21,0.04,8,Rain,291